Location: Mentone
(34.5413°N, 85.5351°W)
Time: 03:32:27
(UTC-05:00)

AO-Echo - Visible Passes

Search period start: 02 September 2015 00:00
Search period end: 12 September 2015 00:00
Orbit: 693 x 813 km, 98.3° (Epoch: 01 September)

Date Brightness Start Highest point End Pass type
(mag) Time Alt. Az. Time Alt. Az. Time Alt. Az.
02 Sep ? 02:17:45 10° NNE 02:18:02 12° NNE 02:18:02 12° NNE visible
03 Sep ? 03:16:39 10° NNW 03:17:02 12° NNW 03:17:02 12° NNW visible
04 Sep ? 02:35:45 10° N 02:36:07 12° N 02:36:07 12° N visible
06 Sep ? 02:53:55 10° N 02:54:13 12° N 02:54:13 12° N visible
08 Sep ? 03:12:15 10° N 03:12:18 10° N 03:12:18 10° N visible
